BEIDOU-2 G7

Last updated on Nov. 17, 2019, 4:19 a.m. UTC

1 41586U 16037A   19320.13562230 -.00000344  00000-0  00000+0 0  9999
2 41586   1.1050  53.6907 0006334 357.6235 163.0206  1.00274768 12668
UTC
Height (km)
Latitude
Longitude
Inclination
Orbital Period
UTC large
Height (km)
Speed (km/s)
/
Latitude / Longitude
Inclination (degrees)
Orbital Period (minutes)
Azimuth
Elevation
Range (km)
Doppler Factor
iOS Compass Heading
iOS Angle

Next 30 passes for location: Hong Kong

Rise time Rise Azimuth (degrees) Set time Set Azimuth (degrees) Duration Max altitude (degrees)

No matching passes for this satellites